{"data":{"norad_id":49112,"intl_designator":"2021-076A","name":"RSW-01","alt_names":[],"object_type":"PAYLOAD","status":"ACTIVE","operator":null,"country":"PRC","launch_date":"2021-08-24","launch_site_code":"JSC","launch_vehicle":null,"mission":null,"orbit_class":"UNKNOWN","rcs_meters":null,"size_class":null,"mass_kg":null,"dimensions":null,"purposes":[],"wikipedia_slug":null,"has_3d_model":false,"image_url":null,"decayed_at":null,"tle_current":{"epoch":"2026-05-25T04:14:21.367680Z","epoch_age_seconds":59860,"freshness":"FRESH","line1":"1 49112U 21076A   26145.17663620 -.00000113  00000+0 -22678-3 0  9996","line2":"2 49112  86.4107 166.0357 0017098 124.6568 235.6191 13.42860864232792","mean_motion":13.42860864,"eccentricity":0.0017098,"inclination_deg":86.4107,"raan_deg":166.0357,"arg_perigee_deg":124.6568,"mean_anomaly_deg":235.6191,"bstar":-0.00022678,"rev_number":23279,"period_min":107.23374540164,"perigee_km":1085.8573911676,"apogee_km":1111.4249818542,"semimajor_km":7476.7781865109,"source":"CELESTRAK","updated_at":"2026-05-25T13:37:57.085240Z"}}}